Tracking 35274 objects as of 11-Sep-2026
HD Live streaming from Space Station
objects crossing your sky now

CZ-4 DEB

Track CZ-4 DEB now!
10-day predictions


NORAD ID: 20866
Int'l Code: 1990-081AE
Launch date: September 3, 1990
Source: People's Republic of China (PRC)
Launch site: Taiyaun Space Center, China (TSC)

Note: This is SATELLITE DEBRIS
Your satellite tracking list
Your tracking list is empty




NASA's NSSDC Master Catalog

Two Line Element Set (TLE):
1 20866U 90081AE  26253.53139462  .00000413  00000-0  25628-3 0  9995
2 20866  98.9496 232.9620 0070308  71.5110  47.8735 14.09337482839517
Source of the keplerian elements: AFSPC